Погода в Варварине

Россия / Тульская область     53°39′57″N   36°32′56″E
темп.,
°C
ветер,
м/с
пор.,
м/с
влажн.,
%
обл.,
%
осадки,
мм/ч
давл.,
гПа
погр.,
м
13 июня, вс
вс1300:00+14ююз228880 0.0 100810
03:00+12ююз22931 0.0 100714
06:00+14ююз23930 0.0 100793
09:00+18ююз338186 0.0 1007526
12:00+21ююз346641 0.0 10071244
15:00+22ююз456282 0.0 10071546
18:00+20ююз478181 0.7 1007799
21:00+16ю3794100 2.2 1008119
14 июня, пн
пн1400:00+15ю36947 1.0 1009106
03:00+14ю349551 1.0 101162
06:00+15ююз259529 0.0 1012149
09:00+19ююз348171 0.0 1014518
12:00+22юз336968 0.0 10151171
15:00+23юз226345 0.1 10151343
18:00+23юз22707 0.5 1015803
21:00+18зсз118336 2.2 101511
15 июня, вт
вт1500:00+16всв118810 0.1 101511
03:00+15всв11903 0.2 101511
06:00+17всв11891 0.0 101552
09:00+21ссз22810 0.0 1015451
12:00+23с226826 0.4 10141169
15:00+23с2270100 2.4 1013983
18:00+22ссз238143 3.3 1012322
21:00+18ссз228670 4.8 101116
16 июня, ср
ср1600:00+16ссз359356 0.0 101184
03:00+14ссз48946 0.0 1012140
06:00+14с389247 0.0 1012186
09:00+19с57765 0.0 1012485
12:00+22с5661100 0.0 10121229
15:00+23ссв57584 0.0 10121531
18:00+20ссв610804 0.3 1014665
21:00+17с49854 0.4 1016194
17 июня, чт
чт1700:00+14ссв512755 0.0 1018276
03:00+12ссв410823 0.0 1020190
06:00+12ссв411800 0.0 1021252
09:00+17св57670 0.0 1022498
12:00+19св67580 0.0 10231159
15:00+20св56580 0.0 10231342
18:00+19св47680 0.0 1024784
21:00+14св34834 0.0 102450